STARLINK-2713, 48602

Orbit data source: Space-Track

STARLINK-2713, 48602 is a payload satellite owned by SpaceX/Seattle (US) in LEO that was launched on Sat, 15 May 2021 UTC via an FALCON 9 launch vehicle from the Air Force Eastern Test Range (AFETR). Payload-class satellites include a variety of spacecraft equipped with specific instruments for various scientific and technological missions. These include communications satellites like Starlink; space stations such as the ISS; scientific satellites like the Hubble; Earth observation satellites from companies like Planet Labs, Umbra, and HawkEye 360; GPS; miniature CubeSats for education and research; and military/defense satellites.

Loading next visibility...
Identifier
48602, 2021-041BB
Orbit
LEO
Country
Flag of USUS
Related business
Manufacturer
SpaceX/Seattle
Mission
Operational Commercial Communications
Bus & Motor
STARLINK, Unknown motor
Mass
260 kg wet, ~248 kg dry
Launch date (UTC)
2021-05-15 (5 years ago)
Launch vehicle
FALCON 9
Launch site
Air Force Eastern Test Range (AFETR)
Object type
Payload
Rocket body
Debris
Shape & HBR
Box + 1 Pan, 10.1 m
Radar Cross Section
13.562 m², Large (>1 m²)

Expand to show TLE details & history
Last TLE update: 17 hours ago

TLE from 17 hours ago
0 STARLINK-2713
1 48602U 21041BB  25349.73097047 -.00003294  00000-0 -20243-3 0  9992
2 48602  53.0541 133.5218 0001323  87.3297 272.7844 15.06387379254013
Epoch: 2025-12-15T17:32Z
TLE epoch observation values (Epoch: 2025-12-15T17:32:35.848Z)
Latitude
0.00002°
Longitude
145.74712°
Altitude
548.085 km
Speed
7.589 km/s
True Right ascension
08h 54m 05s
True Declination
0° 00' 00"
Sunlit
Object was in full shadow at epoch
Visualization orbit readout
Latitude
Unknown
Longitude
Unknown
Altitude
Unknown
Speed
Unknown
Apparent Right ascension
Unknown
Apparent Declination
Unknown
Sunlit
N/A
Visualization observer readout
Local Sidereal Time
09:24:33
Azimuth
Unknown
Elevation
Unknown
Doppler factor
Unknown
Orbital elements
Apogee altitude
548.437 km
Perigee altitude
546.605 km
Semi-major axis
6,925.658 km
Eccentricity
0.00013
Inclination
53.0541°
RAAN
133.5218°
Arg. of periapsis
87.3297°
True anomaly
272.76926°
Mean anomaly
272.7844°
Eccentric anomaly
272.77683°
Mean motion
3.76575 °/min
Orbital period
95.6 mins
BSTAR
-0.00020243
Loading maneuver chart data...
Computing Atmospheric mass density...
Loading historical data...
Loading historical data...
Loading historical data...
Loading historical data...
Loading historical data...
Loading historical data...
Loading historical data...

Documentation

Showing up to 5 results
|